www.pogodaiklimat.ru

Погода и климат >> Архив погоды >> Россия >> Краснодарский край >> Усть-Лабинск


ПОГОДА в Усть-Лабинске

  • Прогноз погоды в Усть-Лабинске
  • Монитор погоды в Усть-Лабинске

АРХИВ ПОГОДЫ в Усть-Лабинске

Время (UTC), дата Ветер
(напр.,м/с)
 
Видим.   Явления Облачность Т
(С)
Тd
(С)
f
(%)
Тe
(С)
Тes
(С)
Комфортность P
(гПа)
Po
(гПа)
Тmin
(С)
Tmax
(С)
R
(мм)
R24
(мм)
S
(см)
18 11.04 ЮЗ 3 10 км {гроза, ливн. осадки} 10/3 600 м
[Cb cap Ac und]
+13.2 +10.1 81 +12 +12 1011.9 1000.7
21 11.04 В 3 10 км 10/3 600 м
[Cb cap Ac und]
+11.8 +9.5 86 +10 +10 1012.7 1001.4
00 12.04 ЮВ 2 10 км 4/0
[Ac trans Ci fib]
+10.8 +9.1 89 +9 +9 1012.5 1001.1
03 12.04 ЮЗ 1 10 км 4/3 600 м
[Cb cap Ac trans]
+10.0 +8.7 92 +9 +10 1013.2 1001.8 +9.5 2
06 12.04 З 3 10 км 10/3 600 м
[Cb cap Ac und]
+14.6 +10.5 76 +14 +15 1013.6 1002.4
09 12.04 ЮЗ 2 10 км в посл. час ливневой дождь 10/6 600 м
[Cb cap Ac und]
+15.1 +10.3 73 +15 +17 1014.5 1003.3
12 12.04 ЮЗ 5 10 км {ливн. осадки} 10/8 600 м
[Cb cap Ac und]
+16.0 +9.8 67 +15 +15 1014.1 1003.0
15 12.04 ЮЗ 4
{12}
10 км 4/3 600 м
[Cu hum Ac trans]
+16.1 +9.0 63 +15 +16 1014.5 1003.4 +17.0 0.0
18 12.04 ЮЗ 3 10 км 8/0
[Ac trans]
+13.8 +9.0 73 +13 +13 1015.5 1004.3
21 12.04 Ю 1 10 км 4/0
[Ac trans]
+9.6 +7.9 89 +9 +9 1015.5 1004.1
00 13.04 Ю 2 10 км в посл. час ливневой дождь 10/6 600 м
[Cb cap Ac und]
+11.0 +10.1 94 +10 +10 1015.4 1004.0
03 13.04 ЮЗ 2 10 км 10/8 600 м
[Cb cap Ac und]
+11.3 +9.8 90 +10 +10 1015.7 1004.4 +9.6 3
06 13.04 Ю 2 10 км в посл. час ливневой дождь 10/8 600 м
[Cb cap Ac und]
+12.2 +10.3 88 +11 +12 1016.3 1005.0
09 13.04 ЮЗ 4 10 км 10/6 600 м
[Cb cap Ac und]
+14.9 +10.1 73 +14 +15 1016.0 1004.8
12 13.04 СЗ 3 10 км в посл. час ливневой дождь 10/8 600 м
[Cb cap Ac und]
+13.2 +11.9 92 +12 +12 1016.3 1005.0
15 13.04 З 2 10 км 9/5 600 м
[Cb cap Ac trans]
+13.4 +11.1 86 +13 +13 1016.3 1005.0 +15.1 0.8
18 13.04 Ю 1 10 км 9/3 600 м
[Cb cap Ac trans]
+12.4 +10.7 89 +12 +12 1017.1 1005.8
21 13.04 ЮВ 1 10 км 5/0
[Ac trans]
+10.7 +10.2 97 +10 +10 1016.2 1004.8
00 14.04 СВ 1 10 км 8/0
[Ac trans]
+9.1 +8.9 99 +8 +8 1014.9 1003.5
03 14.04 В 2 10 км {ливн. осадки} 9/4 600 м
[Cb cap Ac trans]
+10.0 +8.7 92 +8 +8 1013.6 1002.2 +8.8 0.3
06 14.04 СВ 4 10 км {ливн. осадки} 10/6 600 м
[Cb cap Ac und]
+12.8 +11.0 89 +11 +11 1013.0 1001.7
09 14.04 СВ 3 10 км 10/8 600 м
[Cb cap Ac und]
+15.6 +12.7 83 +15 +16 1011.8 1000.7
12 14.04 СВ 5 10 км 10/4 600 м
[Cb cap Ac und]
+17.7 +13.1 74 +17 +18 1009.8 998.8
15 14.04 СВ 3 10 км 8/3 600 м
[Cb cap Ac As]
+17.4 +12.2 72 +17 +18 1008.4 997.4 +18.1
18 14.04 СВ 3 10 км 8/3 600 м
[Cb cap Ac As]
+14.6 +11.4 81 +14 +14 1007.7 996.5
21 14.04 В 4 10 км 10/4 600 м
[Cb cap Ac und]
+14.7 +12.2 85 +13 +13 1006.9 995.8
00 15.04 СВ 1 10 км 10/5 600 м
[Cb cap Ac und]
+12.3 +11.6 95 +12 +12 1006.7 995.6
03 15.04 ЮЗ 4 10 км ливневой дождь 10/10 600 м
[Cb cap]
+12.5 +11.8 95 +10 +10 1009.1 997.8 +12.2 4
06 15.04 ЮЗ 4 10 км {ливн. осадки} 8/4 600 м
[Cb cap Ac trans]
+13.0 +11.4 90 +11 +13 1011.2 1000.0 +11.5
09 15.04 ЮЗ 5 10 км 9/8 600 м
[Cb cap Ci fib]
+16.3 +10.7 69 +15 +17 1012.4 1001.3
12 15.04 ЮЗ 4 10 км 8/3 600 м
[Cb cap Ac trans Ci fib]
+16.9 +9.9 63 +16 +19 1012.5 1001.4
15 15.04 З 3 10 км 4/3 600 м
[Cb cap Ci fib]
+15.7 +9.9 68 +15 +16 1012.3 1001.1 +17.8 5
18 15.04 штиль 0 10 км 8/3 600 м
[Cb cap Ci fib]
+10.9 +9.1 89 +10 +10 1013.3 1002.0
21 15.04 СЗ 1 10 км 10/5 600 м
[Cb cap Ac trans]
+11.8 +9.5 86 +12 +12 1013.5 1002.2
00 16.04 СЗ 1 10 км слаб. ливневой дождь 10/8 600 м
[Cb cap Ac und]
+10.3 +9.7 96 +10 +10 1014.0 1002.7
03 16.04 СЗ 2 10 км слаб. ливневой дождь 10/10 600 м
[Cb cap]
+10.0 +9.6 97 +8 +8 1014.3 1002.9 +10.0 8
06 16.04 ЮВ 1 10 км слаб. ливневой дождь 10/8 600 м
[Cb cap Ac und]
+10.9 +9.3 90 +11 +11 1014.9 1003.5
09 16.04 З 1 10 км {ливн. осадки} 10/8 600 м
[Cb cap Ac und]
+13.7 +9.9 78 +14 +15 1014.1 1002.9
12 16.04 З 4 10 км слаб. ливневой дождь 10/8 600 м
[Cb cap Ac und]
+14.5 +9.7 73 +13 +14 1013.2 1002.0
15 16.04 СЗ 4 10 км {ливн. осадки} 9/3 600 м
[Cb cap Ac trans Ci fib]
+13.6 +10.3 80 +12 +12 1013.6 1002.4 +17.0 1
18 16.04 СЗ 2 10 км {ливн. осадки} 9/9 600 м
[Sc]
+10.9 +9.7 92 +9 +9 1014.1 1002.8
21 16.04 З 2 10 км 10/0
[Ac trans Ci fib]
+9.1 +8.6 97 +7 +7 1013.7 1002.3
00 17.04 СЗ 2 10 км 6/0
[Ac trans Ci fib]
+8.6 +7.9 95 +7 +7 1012.4 1001.0
03 17.04 СЗ 2 10 км 10/0
[Ac trans Ci fib]
+8.2 +7.2 93 +6 +6 1011.7 1000.2 +8.0
06 17.04 З 2 10 км слаб. морось 10/10 300 м
[St]
+9.9 +9.2 95 +8 +8 1011.4 1000.1
09 17.04 СЗ 2 10 км {морось} 10/10 300 м
[St]
+11.3 +10.2 93 +10 +10 1011.3 1000.1
12 17.04 СВ 5-10
{11}
10 км {ливн. осадки} 10/10 600 м
[Cb cap]
+9.7 +8.4 92 +6 +6 1012.7 1001.3
15 17.04 СВ 6-10
{12}
10 км в посл. час ливневой дождь 10/10 300 м
[Cb cap]
+6.9 +5.2 89 +2 +2 1015.4 1003.9 +11.8 1
18 17.04 СВ 5-10
{13}
10 км {ливн. осадки} 10/10 300 м
[Cb cap]
+4.9 +3.8 93 0 0 1018.1 1006.4
21 17.04 СВ 5
{10}
10 км слаб. ливневой дождь 10/10 300 м
[Cb cap]
+4.5 +3.9 96 -1 -1 1019.3 1007.6
00 18.04 СВ 5
{12}
10 км {ливн. осадки} 10/10 300 м
[Cb cap]
+3.4 +2.9 97 -2 -2 1019.5 1007.8
03 18.04 СВ 6
{12}
10 км в посл. час ливневой дождь 10/10 600 м
[Cb cap]
+2.1 +0.8 91 -4 -4 1020.3 1008.5 +2.1 3
06 18.04 СВ 6-10
{11}
10 км слаб. ливневой дождь со снегом 10/10 600 м
[Cb cap]
+2.0 +1.3 95 -4 -4 1021.8 1010.0 +1.8
09 18.04 СВ 6
{11}
10 км слаб. ливневой дождь 10/10 600 м
[Cb cap]
+4.7 +1.6 80 -0 -0 1022.4 1010.7
12 18.04 В 7-10
{10}
10 км {ливн. осадки} 10/8 600 м
[Cb cap Ac und]
+7.1 +2.1 70 +3 +3 1022.1 1010.5

 

Местоположение метеостанции Усть-Лабинск (Краснодарский край, Россия): широта 45.23 долгота 39.73 высота над уровнем моря 94 м.

В архиве по умолчанию представлена погода в Усть-Лабинске за последнюю неделю. Архивные данные за месяц целиком и за предыдущие месяцы, начиная с января 2011 года, Вы можете получить, выбрав интересующий диапазон дат из раскрывающегося списка и нажав кнопку "Ввод!".


*Определитесь, кто Вы:
робот инопланетянин человек

Внимание! Время в таблицах - всемирное. Для получения местного времени необходимо прибавить поправку, которая равна 3 ч.

Смотрите также архив погоды в соседних городах и на ближайших метеорологических станциях:

Погода в Кореновске (Краснодарский край, Россия) (33 км)
Погода в Белореченске (Краснодарский край, Россия) (55 км)
Погода в Краснодаре (Краснодарский край, Россия) (58 км)
Погода в Дондуковской (Адыгея, Россия) (64 км)
Погода в Кропоткине (Краснодарский край, Россия) (69 км)
Погода в Майкопе (Адыгея, Россия) (73 км)
Погода в Тихорецке (Краснодарский край, Россия) (74 км)
Погода в Тимашевске (Краснодарский край, Россия) (77 км)
Погода в Горячем Ключе (Краснодарский край, Россия) (83 км)
Погода в Шунтуке (Адыгея, Россия) (90 км)

Пояснения к столбцам:

Ветер - указаны скорость ветра в м/с - средняя за 10 мин, порывы в срок и между сроками (в фигурных скобках) и направление, откуда дует ветер: С - северный, СВ - северо-восточный, В - восточный, ЮВ - юго-восточный, Ю - южный, ЮЗ - юго-западный, З - западный, СЗ - северо-западный.
Видимость - горизонтальная дальность видимости в метрах или километрах. При видимости от 1 до 10 км при отсутствии осадков обычно наблюдается дымка, при ухудшении видимости до 1 км и менее - туман. В сухую погоду видимость может ухудшаться дымом, пылью или мглою.
Явления - указаны атмосферные явления, наблюдавшиеся в срок или в последний час перед сроком; фигурными скобками обозначены явления, наблюдавшиеся между сроками (за 1-3 часа до срока); квадратными скобками обозначены град или гололедные отложения с указанием их диаметра в мм.
Облачность - указаны через наклонную черту общая и нижняя облачность в баллах и высота нижней границы облаков в метрах; квадратными скобками обозначены формы облаков: Ci - перистые, Cs - перисто-слоистые, Cc - перисто-кучевые, Ac - высококучевые, As - высокослоистые, Sc - слоисто-кучевые, Ns - слоисто-дождевые, Cu - кучевые, Cb - кучево-дождевые. Подробнее классификацию облаков см. в Атласе облаков (PDF).
T - Температура воздуха - температура, измеренная на высоте 2 м над землей.
Td - Температура точки росы - температура, при понижении до которой содержащийся в воздухе водяной пар достигнет насыщения.
f - Относительная влажность воздуха - влажноcть воздуха, измеренная на высоте 2 м над землей.
Te - Эффективная температура - температура, которую ощущает одетый по сезону человек в тени. Характеристика душности погоды. При расчете учитывается влияние влажности воздуха и скорости ветра на теплоощущения человека.
Tes - Эффективная температура на солнце - температура, которую ощущает человек, с поправкой на солнечный нагрев. Характеристика знойности погоды. Зависит от высоты солнца над горизонтом, облачности и скорости ветра. Ночью, в пасмурную погоду, а также при ветре 12 м/с и более поправка равна нулю.
P - Атмосферное давление - приведенное к уровню моря атмосферное давление.
Po - Атмосферное давление - измеренное на уровне метеостанции атмосферное давление.
Tmin - Минимальная температура - минимум температуры воздуха на высоте 2 м над землей.
Tmax - Максимальная температура - максимум температуры воздуха на высоте 2 м над землей.
R - Количество осадков - Количество выпавших осадков за период времени, мм. При наведении курсора мыши на число - период времени, за который выпало указанное количество осадков.
R24 - Количество осадков - Количество выпавших осадков за 24 часа, мм.
S - Снежный покров - Высота снежного покрова, см. При наведении курсора мыши на число - состояние снежного покрова и степень покрытия местности в баллах.